Grant County, OR

2:51 PM PDT on May 29, 2017 (GMT -0700)
Grant County Regional

Weather History for KGCD - April, 2013

Change the Weather History Date:

Monday, April 8, 2013

  Actual Average (KBNO) Record (KBNO)
Temperature  
Mean Temperature 38 °F -  
Max Temperature 43 °F 51 °F 76 °F (2016)
Min Temperature 33 °F 25 °F 14 °F (1988)
Degree Days  
Heating Degree Days 27    
Moisture  
Dew Point 29 °F    
Average Humidity 72    
Maximum Humidity 89    
Minimum Humidity 57    
Precipitation  
Precipitation 0.00 in - - ()
Sea Level Pressure  
Sea Level Pressure 29.97 in    
Wind  
Wind Speed 8 mph (WNW)    
Max Wind Speed 15 mph    
Max Gust Speed 25 mph    
Visibility 10 miles    
Events Snow    
Averages and records for this station are not official NWS values.
T = Trace of Precipitation, MM = Missing Value Source: NWS Daily Summary

Daily Weather History Graph

Daily Weather History Graph

Search for Another Location

Airport or City:

Trip Planner

Search our weather history database for the weather conditions in past years. The results will help you decide how hot, cold, wet, or windy it might be!

Date:

Astronomy

Apr. 08, 2013 Rise Set
Actual Time 6:23 AM PDT 7:32 PM PDT
Civil Twilight 5:53 AM PDT 8:02 PM PDT
Nautical Twilight 5:18 AM PDT 8:37 PM PDT
Astronomical Twilight 4:40 AM PDT 9:15 PM PDT
Moon 5:19 AM PDT (4/8) 6:09 PM PDT (4/8)
Length of Visible Light 14h 08m
Length of Day
13h 08m
Waning Crescent, 3% of the Moon is Illuminated
Apr 8
Waning Crescent
Apr 10
New
Apr 18
First Quarter
Apr 25
Full
May 2
Last Quarter

Hourly Weather History & Observations

Time (PDT) Temp. Windchill Dew Point Humidity Pressure Visibility Wind Dir Wind Speed Gust Speed Precip Events Conditions
12:15 AM 34.5 °F 27.9 °F 25.3 °F 69% 29.78 in 10.0 mi WNW 8.1 mph - N/A   Scattered Clouds
12:35 AM 34.5 °F 30.4 °F 25.5 °F 70% 29.78 in 10.0 mi West 4.6 mph - N/A   Clear
12:55 AM 34.2 °F - 25.7 °F 71% 29.80 in 10.0 mi Calm Calm - N/A   Scattered Clouds
1:15 AM 34.3 °F 29.2 °F 26.2 °F 72% 29.81 in 10.0 mi West 5.8 mph - N/A   Scattered Clouds
1:35 AM 35.6 °F 31.7 °F 27.1 °F 71% 29.82 in 10.0 mi West 4.6 mph - N/A   Mostly Cloudy
1:55 AM 35.6 °F 30.7 °F 27.5 °F 72% 29.82 in 10.0 mi West 5.8 mph - N/A   Overcast
2:15 AM 35.1 °F 30.1 °F 27.5 °F 74% 29.82 in 10.0 mi West 5.8 mph - N/A   Overcast
2:35 AM 35.1 °F - 27.5 °F 74% 29.82 in 10.0 mi Calm Calm - N/A   Overcast
2:55 AM 34.9 °F 29.9 °F 27.5 °F 74% 29.83 in 10.0 mi West 5.8 mph - N/A   Overcast
3:15 AM 35.2 °F 29.5 °F 27.5 °F 73% 29.83 in 10.0 mi West 6.9 mph - N/A   Overcast
3:35 AM 35.1 °F 27.9 °F 27.5 °F 74% 29.84 in 10.0 mi West 9.2 mph - N/A   Overcast
3:55 AM 34.9 °F 27.7 °F 27.9 °F 76% 29.85 in 10.0 mi West 9.2 mph - N/A   Overcast
4:15 AM 34.7 °F 26.9 °F 28.4 °F 78% 29.85 in 10.0 mi West 10.4 mph - N/A   Overcast
4:35 AM 34.0 °F 25.0 °F 29.3 °F 83% 29.86 in 10.0 mi West 12.7 mph - N/A   Overcast
4:55 AM 33.4 °F 25.9 °F 30.0 °F 87% 29.87 in 10.0 mi West 9.2 mph - N/A Snow Light Snow
5:15 AM 33.3 °F 26.4 °F 30.2 °F 89% 29.87 in 10.0 mi West 8.1 mph - N/A   Overcast
5:35 AM 33.4 °F 25.4 °F 30.0 °F 87% 29.87 in 10.0 mi West 10.4 mph - N/A   Overcast
5:55 AM 33.3 °F 24.6 °F 29.8 °F 87% 29.88 in 10.0 mi West 11.5 mph - N/A   Overcast
6:15 AM 33.6 °F 24.6 °F 29.5 °F 85% 29.88 in 10.0 mi West 12.7 mph - N/A   Overcast
6:35 AM 33.8 °F 25.8 °F 29.3 °F 84% 29.90 in 10.0 mi West 10.4 mph - N/A   Overcast
6:55 AM 33.8 °F 28.6 °F 29.3 °F 84% 29.91 in 10.0 mi West 5.8 mph - N/A   Overcast
7:15 AM 34.3 °F 25.0 °F 28.9 °F 81% 29.92 in 10.0 mi West 13.8 mph - N/A   Overcast
7:35 AM 34.7 °F 26.4 °F 28.4 °F 78% 29.93 in 10.0 mi West 11.5 mph - N/A   Overcast
7:55 AM 34.5 °F 25.3 °F 28.4 °F 78% 29.94 in 10.0 mi West 13.8 mph - N/A   Overcast
8:15 AM 34.9 °F 27.1 °F 27.7 °F 75% 29.95 in 10.0 mi West 10.4 mph 18.4 mph N/A   Overcast
8:35 AM 34.7 °F 25.5 °F 27.0 °F 73% 29.95 in 10.0 mi WNW 13.8 mph 19.6 mph N/A   Overcast
8:55 AM 35.6 °F 26.6 °F 25.5 °F 67% 29.96 in 10.0 mi NW 13.8 mph 18.4 mph N/A   Overcast
9:15 AM 36.0 °F 27.1 °F 25.2 °F 65% 29.96 in 10.0 mi NW 13.8 mph 19.6 mph N/A   Overcast
9:35 AM 36.5 °F 27.8 °F 24.8 °F 63% 29.96 in 10.0 mi NNW 13.8 mph 18.4 mph N/A   Overcast
9:55 AM 36.9 °F 29.1 °F 25.5 °F 64% 29.97 in 10.0 mi NW 11.5 mph 18.4 mph N/A   Overcast
10:15 AM 36.7 °F 28.9 °F 25.2 °F 63% 29.97 in 10.0 mi NW 11.5 mph - N/A   Overcast
10:35 AM 36.9 °F 30.1 °F 25.2 °F 63% 29.98 in 10.0 mi NNW 9.2 mph - N/A   Overcast
10:55 AM 37.2 °F 29.6 °F 25.9 °F 64% 29.98 in 10.0 mi NW 11.5 mph - N/A   Overcast
11:15 AM 37.8 °F 32.5 °F 26.4 °F 64% 29.99 in 10.0 mi NW 6.9 mph - N/A   Overcast
11:35 AM 37.9 °F 30.5 °F 26.6 °F 64% 29.99 in 10.0 mi WNW 11.5 mph - N/A   Overcast
11:55 AM 38.1 °F 31.7 °F 27.0 °F 64% 29.99 in 10.0 mi West 9.2 mph - N/A   Overcast
12:15 PM 39.0 °F 35.7 °F 26.6 °F 61% 29.99 in 10.0 mi WNW 4.6 mph - N/A   Overcast
12:35 PM 40.3 °F 33.9 °F 26.6 °F 58% 29.99 in 10.0 mi West 10.4 mph 17.3 mph N/A   Overcast
12:55 PM 40.1 °F 34.7 °F 27.5 °F 61% 29.99 in 10.0 mi WNW 8.1 mph - N/A   Overcast
1:15 PM 40.5 °F 35.1 °F 27.5 °F 60% 29.99 in 10.0 mi WNW 8.1 mph - N/A   Overcast
1:35 PM 40.5 °F 35.1 °F 26.2 °F 57% 29.99 in 10.0 mi NW 8.1 mph - N/A   Overcast
1:55 PM 40.8 °F 34.5 °F 27.0 °F 58% 30.00 in 10.0 mi NW 10.4 mph - N/A   Overcast
2:15 PM 41.0 °F 35.2 °F 27.7 °F 59% 30.00 in 10.0 mi NNW 9.2 mph 16.1 mph N/A   Overcast
2:35 PM 41.0 °F 35.8 °F 27.9 °F 60% 30.00 in 10.0 mi NW 8.1 mph 20.7 mph N/A   Overcast
2:55 PM 40.6 °F 34.8 °F 28.8 °F 63% 30.00 in 10.0 mi West 9.2 mph - N/A   Overcast
3:15 PM 41.2 °F 36.0 °F 29.1 °F 62% 30.00 in 10.0 mi West 8.1 mph - N/A   Overcast
3:35 PM 42.1 °F 35.7 °F 29.1 °F 60% 30.00 in 10.0 mi WNW 11.5 mph 18.4 mph N/A   Overcast
3:55 PM 43.0 °F 35.7 °F 28.6 °F 57% 30.00 in 10.0 mi NW 15.0 mph 18.4 mph N/A   Overcast
4:15 PM 42.8 °F 36.2 °F 29.3 °F 59% 30.00 in 10.0 mi NW 12.7 mph 20.7 mph N/A   Overcast
4:35 PM 41.2 °F 33.7 °F 32.0 °F 70% 30.01 in 10.0 mi WNW 13.8 mph 23.0 mph N/A   Overcast
4:55 PM 41.4 °F 34.3 °F 31.1 °F 67% 30.01 in 10.0 mi NW 12.7 mph 16.1 mph N/A   Overcast
5:15 PM 41.5 °F 35.0 °F 32.0 °F 69% 30.02 in 10.0 mi WNW 11.5 mph - N/A   Overcast
5:35 PM 41.9 °F 34.3 °F 30.6 °F 64% 30.02 in 10.0 mi WNW 15.0 mph 25.3 mph N/A   Overcast
5:55 PM 41.2 °F 34.5 °F 32.4 °F 71% 30.03 in 10.0 mi West 11.5 mph - N/A   Overcast
6:15 PM 40.5 °F 33.2 °F 31.8 °F 71% 30.04 in 10.0 mi West 12.7 mph - N/A   Overcast
6:35 PM 40.5 °F 33.6 °F 32.2 °F 72% 30.05 in 10.0 mi WNW 11.5 mph - N/A   Overcast
6:55 PM 40.1 °F 36.1 °F 32.2 °F 73% 30.06 in 10.0 mi West 5.8 mph - N/A   Overcast
7:15 PM 39.2 °F 33.0 °F 33.1 °F 79% 30.07 in 10.0 mi West 9.2 mph - N/A   Overcast
7:35 PM 39.2 °F 34.2 °F 33.4 °F 80% 30.08 in 10.0 mi West 6.9 mph - N/A   Overcast
7:55 PM 39.2 °F 33.0 °F 33.1 °F 79% 30.09 in 10.0 mi West 9.2 mph - N/A   Overcast
8:15 PM 39.2 °F 33.0 °F 32.9 °F 78% 30.10 in 10.0 mi West 9.2 mph - N/A   Overcast
8:35 PM 39.2 °F 33.0 °F 32.9 °F 78% 30.10 in 10.0 mi West 9.2 mph - N/A   Overcast
8:55 PM 39.2 °F 34.2 °F 32.9 °F 78% 30.11 in 10.0 mi West 6.9 mph - N/A   Overcast
9:15 PM 39.2 °F 35.0 °F 33.1 °F 79% 30.12 in 10.0 mi WSW 5.8 mph - N/A   Overcast
9:35 PM 39.2 °F 35.9 °F 32.9 °F 78% 30.12 in 10.0 mi WSW 4.6 mph - N/A   Overcast
9:55 PM 39.6 °F 34.7 °F 32.5 °F 76% 30.13 in 10.0 mi West 6.9 mph - N/A   Overcast
10:15 PM 39.7 °F 34.3 °F 32.4 °F 75% 30.14 in 10.0 mi West 8.1 mph - N/A   Overcast
10:35 PM 40.1 °F 35.3 °F 32.0 °F 73% 30.14 in 10.0 mi WNW 6.9 mph - N/A   Overcast
10:55 PM 39.2 °F 33.0 °F 34.0 °F 82% 30.14 in 10.0 mi West 9.2 mph - N/A   Overcast
11:15 PM 38.3 °F 30.9 °F 34.5 °F 86% 30.14 in 10.0 mi West 11.5 mph - N/A   Overcast
11:35 PM 37.9 °F 31.5 °F 34.7 °F 88% 30.15 in 10.0 mi West 9.2 mph - N/A   Overcast
11:55 PM 37.4 °F 30.8 °F 34.0 °F 87% 30.16 in 10.0 mi West 9.2 mph - N/A   Overcast